Content
SEND FEEDBACK

Daily
Averages
Monthly
Summary
United States of America

TIMBERLAKE, VIRGINIA


Home > North America > United States > Virginia
Elevation: 938 feet     Latitude: 37 19N     Longitude: 079 12W

WEATHER
 
SELECT A DAY
Number of Records: 211,291;   Date Range: 1/1/95 - 7/7/14
 
SHARE

PRINT THIS DATA

[ ← Previous Day ]
WEATHER ALMANAC - JANUARY 23, 2013
[ Next Day → ]
[ °C ]   °F
Weather ElementAverageHighLow
Temperature25 °F33.1 °F (2:54 pm)14 °F (3:54 am)
Dewpoint4.5 °F18 °F (10:54 pm)-2.9 °F (1:54 pm)
Humidity43.2 %64 % (10:54 pm)22 % (1:54 pm)
Barometer30.24 in30.35 in (7:54 am)30.06 in (11:54 pm)
Wind Speed4.3 mph13.8 mph (2:54 pm)
Wind Gust21.9 mph (2:54 pm)
Weather ElementAverage
Visibility10 mi
Wind DirectionESE (114.8 °)

Weather ElementTotal
Precipitation---
Heating Degree Days41.5 (Base 65)
Averaged from 23 records on January 23, 2013
WEATHER CONDITIONS BREAKOUT
WIND DIRECTION BREAKOUT
WEATHER BY HOUR - JANUARY 23, 2013
[ °C ]   °F
Local TimeTemperatureDewpointHumidityBarometerVisibilityWind DirectionWind SpeedGust SpeedPrecipitationEventsConditions
1:54 AM18.0 °F0.0 °F45 %30.30 in10.0 miSW (220°)3.5 mphOvercast
2:54 AM16.0 °F0.0 °F49 %30.31 in10.0 miSSW (210°)3.5 mphPartly Cloudy
3:54 AM14.0 °F1.0 °F56 %30.32 in10.0 miCalmClear
4:54 AM18.0 °F-2.0 °F41 %30.31 in10.0 miVariable3.5 mphClear
5:54 AM14.0 °F0.0 °F54 %30.32 in10.0 miVariable3.5 mphClear
6:54 AM14.0 °F-0.9 °F52 %30.34 in10.0 miSSW (200°)3.5 mphClear
7:54 AM16.0 °F1.0 °F52 %30.35 in10.0 miCalmClear
8:54 AM19.9 °F3.0 °F48 %30.35 in10.0 miSSW (210°)5.8 mphClear
9:54 AM23.0 °F-0.9 °F35 %30.35 in10.0 miWSW (240°)10.4 mph16.1 mphClear
10:54 AM25.0 °F0.0 °F34 %30.35 in10.0 miVariable5.8 mph16.1 mphClear
11:54 AM27.0 °F0.0 °F31 %30.31 in10.0 miSW (230°)11.5 mphClear
12:54 PM28.9 °F-2.0 °F26 %30.26 in10.0 miVariable6.9 mphMostly Cloudy
1:54 PM32.0 °F-2.9 °F22 %30.22 in10.0 miVariable4.6 mphMostly Cloudy
2:54 PM33.1 °F-0.9 °F23 %30.20 in10.0 miWest (270°)13.8 mph21.9 mphOvercast
3:54 PM30.9 °F1.9 °F29 %30.19 in10.0 miWest (260°)4.6 mphPartly Cloudy
4:54 PM32.0 °F6.8 °F35 %30.16 in10.0 miWSW (240°)9.2 mphOvercast
5:54 PM32.0 °F9.0 °F38 %30.18 in10.0 miWest (260°)3.5 mphOvercast
6:54 PM30.9 °F10.9 °F43 %30.15 in10.0 miWNW (300°)4.6 mphOvercast
7:54 PM30.9 °F12.0 °F46 %30.14 in10.0 miCalmOvercast
8:54 PM30.0 °F15.1 °F54 %30.12 in10.0 miCalmOvercast
9:54 PM30.0 °F16.0 °F56 %30.10 in10.0 miCalmOvercast
10:54 PM28.9 °F18.0 °F64 %30.09 in10.0 miCalmOvercast
11:54 PM30.0 °F18.0 °F61 %30.06 in10.0 miCalmOvercast
Hourly data recorded from KLYH, located miles away from Timberlake, Virginia







STORIES FROM OUR PARTNERS